Regional Weather Roundup
Issued by NWS Upton, NY

Current Version | Previous Version | Text Only | Print | Product List | Glossary On
Versions: 1 2 3 4 5 6 7 8 9 10 11 12 13 14 15 16 17 18 19 20 21 22 23 24 25 26 27 28 29 30 31 32 33 34 35 36 37 38 39 40 41 42 43 44 45 46 47 48 49 50
000 ASUS41 KOKX 291804 RWROKX REGIONAL WEATHER ROUNDUP NATIONAL WEATHER SERVICE NEW YORK NY 200 PM EDT SAT AUG 29 2015 NOTE: "FAIR" INDICATES FEW OR NO CLOUDS BELOW 12,000 FEET WITH NO SIGNIFICANT WEATHER AND/OR OBSTRUCTIONS TO VISIBILITY. NYZ071-072-176-178-NJZ106-104-291900- NEW YORK CITY METRO AREA CITY SKY/WX TMP DP RH WIND PRES REMARKS CENTRAL PARK MOSUNNY 85 53 33 CALM 30.18F LAGUARDIA APRT PTSUNNY 82 51 34 W5 30.15F KENNEDY INTL PTSUNNY 82 58 43 S12 30.18F NEWARK/LIBERTY PTSUNNY 86 53 32 NW7 30.15F BRNX BOT. GARD N/A 82 54 36 SE3 30.17S TETERBORO PTSUNNY 83 53 35 VRB3 30.15F $$ NYZ177-179-078>081-291900- LONG ISLAND NEW YORK CITY SKY/WX TMP DP RH WIND PRES REMARKS FARMINGDALE PTSUNNY 82 56 40 SW7 30.17F ISLIP PTSUNNY 81 58 45 S12 30.16F SHIRLEY MOSUNNY 81 57 43 S12 30.18F WESTHAMPTON PTSUNNY 82 56 40 SW12G21 30.19F MONTAUK POINT N/A 81 56 42 W7 30.19F $$ NYZ052-065-067-291900- HUDSON VALLEY CITY SKY/WX TMP DP RH WIND PRES REMARKS WHITE PLAINS PTSUNNY 81 54 39 NW5 30.17F NEWBURGH MOSUNNY 79 61 53 NW5 30.18F MONTGOMERY MOSUNNY 81 59 47 S3 30.16F POUGHKEEPSIE MOSUNNY 82 55 39 VRB5 30.16F ALBANY PTSUNNY 78 56 46 S8 30.14F $$ NJZ001-105-106-008-010-013-015-019>022-104-291900- NEW JERSEY CITY SKY/WX TMP DP RH WIND PRES REMARKS NEWARK/LIBERTY PTSUNNY 86 53 32 NW7 30.15F TETERBORO PTSUNNY 83 53 35 VRB3 30.15F CALDWELL MOSUNNY 82 56 40 VRB5 30.16F MORRISTOWN PTSUNNY 84 57 39 NW6 30.16F SOMERVILLE MOSUNNY 84 60 44 VRB3 30.14F SUSSEX MOSUNNY 79 58 48 W5 30.17F ANDOVER N/A 79 60 52 VRB5 30.18F TRENTON MOSUNNY 82 59 45 SW5 30.16F MILLVILLE SUNNY 82 57 42 SW7 30.18F ATLANTIC CITY MOSUNNY 84 58 40 VRB6 30.18F WRIGHTSTOWN MOSUNNY 84 60 43 SW8 30.14F TOMS RIVER PTSUNNY 84 55 37 W5 30.17F BELMAR SUNNY 84 57 39 NW7 30.18F $$ PAZ047>061-062-071-291900- EASTERN PENNSYLVANIA CITY SKY/WX TMP DP RH WIND PRES REMARKS PHILADELPHIA MOSUNNY 85 57 38 SW8 30.17F ALLENTOWN PTSUNNY 83 61 47 S5 30.16F SCRANTON PTSUNNY 81 60 48 SW6 30.16F $$ CTZ002-004>006-009-010-012-RIZ004-006-007-MAZ004-011-015-291900- SOUTHERN NEW ENGLAND IN CT CITY SKY/WX TMP DP RH WIND PRES REMARKS BRADLEY INTL CLOUDY 81 54 39 W7 30.15F HARTFORD MOSUNNY 82 56 40 VRB7 30.15F DANBURY MOSUNNY 79 55 43 W5 30.19F WTRBRY/OXFORD MOSUNNY 75 55 50 CALM 30.21 BRIDGEPORT PTSUNNY 82 60 47 SW14 30.17F MERIDEN MOSUNNY 81 54 39 SW5 30.16F NEW HAVEN SUNNY 78 59 51 SW12 30.17F CHESTER NOT AVBL GROTON MOSUNNY 77 62 59 SW13 30.16F WILLIMANTIC MOSUNNY 79 53 40 SW9 30.16F IN RI CITY SKY/WX TMP DP RH WIND PRES REMARKS PROVIDENCE CLOUDY 80 55 42 W12 30.16F BLOCK ISLAND MOSUNNY 79 59 50 W10 30.19F WESTERLY N/A 79 53 40 SW13 30.17F IN MA CITY SKY/WX TMP DP RH WIND PRES REMARKS BOSTON PTSUNNY 80 54 40 W13G18 30.14F WORCESTER MOSUNNY 74 52 46 W10G18 30.18F WESTFIELD MOSUNNY 81 54 39 NW10 30.15F PROVINCETOWN MOSUNNY 79 55 44 S6 30.16F NANTUCKET SUNNY 76 64 66 SW10 30.18F $$ ANZ330-335-338-340-345-350-353-355-291900- COASTAL MARINE OBSERVATIONS STATION/POSITION TIME SKY/WX TEMP WIND PRES VSBY WAVE AIR SEA DIR/SP/G HT/PER (UTC) (F) (DEG/KT/KT) (MB) (MI) (FT/S) NY HARB ENTRANCE 1650 75 78 170/ 6/ 6 1022.6 3/11 4S FIRE IS NOT AVBL 20S FIRE ISLAND 1650 74 77 220/ 4/ 6 1023.0 2/ 8 GREAT SOUTH BAY 1700 75 78 210/ 10/ 12 N/A 23SW MTP 1750 73 73 230/ 8/ 8 1022.1 2/10 HUDSON CANYON NOT AVBL KINGS POINT NOT AVBL EXECUTION ROCKS 1700 79 160/ 4/ 6 N/A CENTRAL LI SOUND NOT AVBL EASTERN LI SOUND 1700 72 70 240/ 10/ 12 N/A ROBBINS REEF NOT AVBL $$ >>>>>>>>>>>>>>>>>>>>>>>>>>>> KEY <<<<<<<<<<<<<<<<<<<<<<<<<<< > < > SKY/WX - SKY CONDITION/PRESENT WEATHER < > TMP - TEMPERATURE IN FAHRENHEIT < > DP - DEWPOINT IN FAHRENHEIT < > RH - RELATIVE HUMIDITY IN PERCENT < > WIND - DIRECTION AND SPEED IN MPH < > PRES - MEAN SEA LEVEL PRESSURE IN INCHES OF HG < > WCI - WIND CHILL INDEX < > VSB - VISIBILITY IN MILES < > HX - HEAT INDEX < > TC - TEMPERATURE IN CELSIUS < > VRB - VARIABLE WIND DIRECTION < > < >>>>>>>>>>>>>>>>>>>>>>>>>>>> KEY <<<<<<<<<<<<<<<<<<<<<<<<<<<

USA.gov is the U.S. government's official web portal to all federal, state and local government web resources and services.